Location: Mahannah Oil Field
(37.4664°N, 96.6003°W)
Time: 09:21:39
(UTC+00:00)

Courier 1B - Pass Details

Date: 29 January 2021
Orbit: 962 x 1209 km, 28.3° (Epoch: 02 March)

Event Time Altitude Azimuth Distance (km) Brightness Sun altitude
Rises 03:27:22 0° 231° (SW) 3,928 11.1 -43.8°
Reaches altitude 10° 03:30:36 10° 220° (SW) 2,928 10.2 -44.4°
Enters shadow 03:30:43 10° 220° (SW) 2,893 10.2 -44.4°
Maximum altitude 03:36:29 28° 165° (SSE) 1,842 - -45.5°
Drops below altitude 10° 03:42:07 10° 108° (ESE) 2,784 - -46.6°
Sets 03:45:07 0° 97° (E) 3,704 - -47.2°
